Regional Weather Roundup
Issued by NWS

Home | Current Version | Previous Version | Graphics & Text | Print | Product List | Glossary On
Versions: 1 2 3 4 5 6 7 8 9 10 11 12 13 14 15 16 17 18 19 20 21 22 23 24 25 26 27 28 29 30 31 32 33 34 35 36 37 38 39 40 41 42 43 44 45 46 47 48 49 50
000
ASUS43 KOAX 051910
RWRNE

WEATHER ROUNDUP FOR NEBRASKA
NATIONAL WEATHER SERVICE OMAHA NE
200 PM CDT TUE MAY 05 2015

NOTES: SATELLITE DATA IS BEING USED TO AUGMENT CLOUD COVER ABOVE
       12000 FEET.
       "FAIR" INDICATES FEW OR NO CLOUDS BELOW 12,000 FEET WITH NO
       SIGNIFICANT WEATHER AND/OR OBSTRUCTIONS TO VISIBILITY.

  * THESE STATIONS DO NOT REPORT WEATHER SUCH AS RAIN...SNOW OR FOG.

NEZ001>004-019>022-054>056-052000-
NEBRASKA PANHANDLE

CITY           SKY/WX    TMP DP  RH WIND       PRES   REMARKS
SCOTTSBLUFF    CLOUDY    59  49  69 SE15G22   29.94F
ALLIANCE       CLOUDY    57  50  77 SE15      29.96F
CHADRON        CLOUDY    63  51  65 E5        29.93F
KIMBALL        CLOUDY    53  49  87 SE10      29.95F
SIDNEY         CLOUDY    52  49  89 SE13      29.97F
$$

NEZ057>060-069>072-079>082-052000-
SOUTHWEST NEBRASKA

CITY           SKY/WX    TMP DP  RH WIND       PRES   REMARKS
NORTH PLATTE   LGT RAIN  58  57  97 E8        29.98F
IMPERIAL       LGT RAIN  56  55  97 E12       29.96F FOG
LEXINGTON      CLOUDY    67  63  86 SE13      29.97F
MCCOOK         CLOUDY    63  60  90 S12       29.94F FOG
OGALLALA       DRIZZLE   55  55  99 E8        29.97F
$$

NEZ005>010-023>029-035>040-094-052000-
NORTH CENTRAL NEBRASKA

CITY           SKY/WX    TMP DP  RH WIND       PRES   REMARKS
VALENTINE      CLOUDY    58  55  90 SE9       30.00F
AINSWORTH      CLOUDY    61  55  82 SE12      30.01F
BROKEN BOW     CLOUDY    62  58  86 SE15G25   30.00F FOG
O`NEILL        CLOUDY    64  60  87 SE5       30.02F
ORD            CLOUDY    63  57  81 SE13      30.01F
THEDFORD       CLOUDY    60  57  89 SE8       30.00F
$$

NEZ041-046>049-061>064-073>077-083>087-052000-
SOUTH CENTRAL NEBRASKA

CITY           SKY/WX    TMP DP  RH WIND       PRES   REMARKS
GRAND ISLAND   CLOUDY    72  59  63 SE15G22   30.01F
AURORA         CLOUDY    72  59  64 SE16G22   30.01F
HASTINGS       CLOUDY    72  56  57 SE13      29.99F
HEBRON         CLOUDY    73  55  53 S18       30.03S
HOLDREGE       PTSUNNY   73  58  60 SE17      29.96F
KEARNEY *      CLOUDY    73  57  56 SE22G28   29.98F
YORK           CLOUDY    72  63  73 S10G16    30.02F
$$

NEZ011>018-030>034-042>045-052000-
NORTHEAST NEBRASKA

CITY           SKY/WX    TMP DP  RH WIND       PRES   REMARKS
NORFOLK        PTSUNNY   70  60  70 S14       30.03F
ALBION         CLOUDY    67  60  77 S13       30.03F
BLAIR          PTSUNNY   72  62  70 SE10      30.05F
COLUMBUS *     CLOUDY    70  59  68 SE10      30.05F
FREMONT        PTSUNNY   73  62  67 SE14      30.05F
TEKAMAH        PTSUNNY   74  63  68 S15       30.04F
WAYNE          PTSUNNY   72  60  67 S14       30.05F
$$

NEZ050>053-065>068-078-088>093-052000-
SOUTHEAST NEBRASKA

CITY           SKY/WX    TMP DP  RH WIND       PRES   REMARKS
LINCOLN        PTSUNNY   75  60  59 S12       30.04F
OMAHA EPPLEY   CLOUDY    74  62  66 SE15      30.05F
BEATRICE       CLOUDY    75  60  59 S16       30.04F
FALLS CITY     PTSUNNY   77  59  53 S12G20    30.05F
NEBRASKA CITY  PTSUNNY   74  59  59 SE10      30.07F
PLATTSMOUTH    PTSUNNY   72  62  70 SE9       30.06F
$$

NEZ044-045-051>053-067-052000-
OMAHA AREA

CITY           SKY/WX    TMP DP  RH WIND       PRES   REMARKS
OMAHA EPPLEY   CLOUDY    74  62  66 SE15      30.05F
BLAIR          PTSUNNY   72  62  70 SE10      30.05F
FREMONT        PTSUNNY   73  62  67 SE14      30.05F
MILLARD        PTSUNNY   74  64  69 SE13      30.05F
OFFUTT AFB     PTSUNNY   74  62  66 SE10      30.05F
PLATTSMOUTH    PTSUNNY   72  62  70 SE9       30.06F
$$


USA.gov is the U.S. government's official web portal to all federal, state and local government web resources and services.